Precipitable_Water
1.24 1.25 1.23 1.25 1.27 1.25 1.23 1.28 1.27 1.30 1.30 1.29 1.25 1.23 1.20 1.17 1.15 1.11 1.08 1.05 1.01 0.96 0.92 0.83 0.77 0.77 0.73 0.74 0.75 0.71 0.63 0.59 0.52 0.53 0.48 0.43 0.39 0.36 0.35 0.37 0.40 0.40 0.40
1.16 1.14 1.12 1.15 1.18 1.20 1.21 1.24 1.27 1.26 1.26 1.24 1.18 1.11 1.02 1.02 0.98 0.95 0.91 0.85 0.86 0.84 0.78 0.76 0.73 0.71 0.63 0.60 0.56 0.49 0.44 0.42 0.36 0.30 0.29 0.27 0.29 0.32 0.34 0.33 0.33 0.36 0.37
1.04 1.04 1.02 1.00 0.99 0.98 1.03 1.06 1.07 1.09 1.07 1.06 1.05 0.99 0.92 0.87 0.82 0.79 0.76 0.71 0.68 0.63 0.62 0.59 0.55 0.49 0.44 0.41 0.38 0.36 0.36 0.33 0.32 0.31 0.30 0.35 0.36 0.37 0.36 0.39 0.39 0.37 0.35
0.96 0.93 0.87 0.86 0.83 0.79 0.79 0.79 0.76 0.73 0.63 0.59 0.58 0.57 0.58 0.58 0.58 0.57 0.54 0.51 0.49 0.46 0.43 0.40 0.36 0.34 0.31 0.31 0.30 0.30 0.33 0.34 0.35 0.35 0.37 0.39 0.40 0.42 0.42 0.40 0.38 0.39 0.36
0.73 0.69 0.66 0.64 0.60 0.56 0.52 0.48 0.47 0.47 0.47 0.47 0.47 0.47 0.46 0.44 0.43 0.39 0.38 0.36 0.34 0.33 0.33 0.32 0.32 0.35 0.36 0.38 0.38 0.38 0.37 0.37 0.37 0.35 0.35 0.37 0.38 0.39 0.38 0.41 0.39 0.40 0.38
0.54 0.51 0.48 0.44 0.42 0.41 0.41 0.39 0.36 0.34 0.34 0.33 0.31 0.29 0.28 0.30 0.31 0.30 0.25 0.24 0.25 0.25 0.26 0.30 0.32 0.34 0.37 0.37 0.38 0.39 0.40 0.38 0.36 0.37 0.37 0.37 0.38 0.40 0.43 0.43 0.40 0.36 0.31
0.41 0.40 0.40 0.40 0.36 0.30 0.30 0.29 0.28 0.28 0.28 0.27 0.26 0.27 0.27 0.31 0.32 0.31 0.29 0.25 0.25 0.25 0.27 0.28 0.30 0.32 0.32 0.33 0.35 0.37 0.36 0.38 0.40 0.39 0.36 0.35 0.35 0.39 0.41 0.41 0.41 0.41 0.39
0.37 0.37 0.34 0.29 0.27 0.28 0.28 0.28 0.27 0.27 0.26 0.27 0.27 0.28 0.29 0.30 0.30 0.31 0.30 0.26 0.25 0.26 0.28 0.28 0.30 0.31 0.33 0.37 0.36 0.37 0.37 0.39 0.40 0.42 0.44 0.45 0.47 0.51 0.54 0.54 0.52 0.51 0.51
0.35 0.33 0.30 0.28 0.28 0.28 0.28 0.28 0.27 0.26 0.26 0.25 0.25 0.26 0.25 0.27 0.30 0.30 0.25 0.24 0.24 0.24 0.27 0.30 0.32 0.31 0.33 0.36 0.38 0.37 0.39 0.41 0.45 0.45 0.46 0.47 0.49 0.51 0.50 0.50 0.46 0.47 0.45
0.37 0.35 0.33 0.32 0.31 0.28 0.27 0.25 0.25 0.24 0.22 0.23 0.24 0.24 0.25 0.24 0.29 0.29 0.28 0.27 0.26 0.29 0.32 0.33 0.35 0.37 0.40 0.43 0.43 0.42 0.37 0.37 0.41 0.44 0.46 0.47 0.46 0.45 0.47 0.46 0.45 0.41 0.46
0.40 0.38 0.34 0.32 0.30 0.29 0.27 0.26 0.22 0.21 0.22 0.22 0.22 0.24 0.25 0.25 0.27 0.31 0.34 0.34 0.35 0.35 0.36 0.36 0.39 0.43 0.47 0.45 0.42 0.37 0.36 0.41 0.36 0.36 0.36 0.37 0.39 0.41 0.44 0.47 0.48 0.46 0.42
0.44 0.40 0.36 0.33 0.30 0.29 0.26 0.24 0.23 0.21 0.20 0.21 0.21 0.22 0.24 0.26 0.30 0.34 0.37 0.40 0.41 0.39 0.39 0.41 0.43 0.43 0.39 0.38 0.36 0.37 0.37 0.34 0.32 0.31 0.32 0.33 0.35 0.37 0.40 0.43 0.45 0.46 0.48
0.44 0.42 0.38 0.32 0.29 0.27 0.24 0.24 0.22 0.19 0.18 0.19 0.19 0.20 0.22 0.25 0.29 0.35 0.38 0.42 0.43 0.43 0.43 0.42 0.39 0.36 0.34 0.32 0.33 0.33 0.32 0.31 0.30 0.30 0.31 0.33 0.36 0.39 0.41 0.42 0.45 0.46 0.46
0.45 0.43 0.41 0.33 0.28 0.24 0.24 0.25 0.21 0.18 0.17 0.16 0.17 0.18 0.21 0.24 0.29 0.36 0.40 0.43 0.44 0.42 0.42 0.37 0.34 0.32 0.31 0.31 0.31 0.32 0.32 0.33 0.34 0.34 0.34 0.37 0.38 0.38 0.38 0.40 0.40 0.41 0.41
0.46 0.45 0.42 0.37 0.29 0.26 0.25 0.24 0.21 0.18 0.15 0.15 0.18 0.19 0.20 0.22 0.31 0.38 0.43 0.42 0.42 0.42 0.39 0.32 0.29 0.29 0.29 0.29 0.30 0.32 0.36 0.38 0.37 0.39 0.38 0.38 0.38 0.37 0.36 0.39 0.40 0.40 0.38
0.47 0.46 0.44 0.39 0.32 0.27 0.25 0.23 0.24 0.22 0.21 0.22 0.24 0.24 0.24 0.28 0.35 0.40 0.42 0.42 0.43 0.43 0.37 0.30 0.27 0.29 0.28 0.29 0.30 0.34 0.38 0.39 0.39 0.40 0.41 0.41 0.40 0.39 0.36 0.37 0.39 0.39 0.37
0.48 0.47 0.46 0.40 0.33 0.28 0.25 0.22 0.20 0.23 0.24 0.24 0.26 0.26 0.26 0.28 0.34 0.39 0.40 0.42 0.41 0.41 0.36 0.32 0.30 0.30 0.30 0.30 0.32 0.37 0.36 0.39 0.42 0.41 0.41 0.41 0.42 0.41 0.39 0.36 0.37 0.38 0.38
0.51 0.50 0.47 0.41 0.35 0.30 0.26 0.22 0.22 0.19 0.17 0.19 0.27 0.28 0.27 0.28 0.33 0.38 0.40 0.40 0.37 0.38 0.38 0.35 0.32 0.33 0.32 0.31 0.34 0.37 0.38 0.39 0.39 0.40 0.40 0.40 0.41 0.41 0.40 0.38 0.38 0.37 0.38
0.52 0.51 0.49 0.43 0.38 0.33 0.27 0.23 0.23 0.20 0.18 0.19 0.23 0.25 0.26 0.28 0.32 0.36 0.38 0.37 0.36 0.37 0.38 0.38 0.36 0.35 0.34 0.33 0.34 0.36 0.37 0.36 0.38 0.39 0.39 0.40 0.41 0.41 0.40 0.40 0.39 0.39 0.40
0.54 0.53 0.50 0.44 0.40 0.35 0.29 0.23 0.22 0.21 0.19 0.20 0.21 0.23 0.25 0.27 0.28 0.31 0.35 0.37 0.38 0.39 0.40 0.39 0.37 0.36 0.36 0.35 0.35 0.35 0.35 0.36 0.37 0.38 0.39 0.40 0.41 0.41 0.41 0.41 0.40 0.38 0.38
0.54 0.58 0.51 0.45 0.39 0.35 0.29 0.24 0.23 0.21 0.19 0.20 0.21 0.25 0.27 0.26 0.27 0.31 0.34 0.36 0.37 0.39 0.39 0.39 0.38 0.37 0.37 0.37 0.36 0.36 0.36 0.36 0.37 0.37 0.38 0.40 0.41 0.40 0.42 0.43 0.42 0.41 0.40
0.58 0.58 0.52 0.43 0.39 0.34 0.29 0.27 0.24 0.21 0.20 0.20 0.22 0.25 0.27 0.27 0.29 0.31 0.34 0.36 0.39 0.40 0.42 0.39 0.37 0.37 0.37 0.37 0.36 0.36 0.35 0.35 0.36 0.38 0.38 0.42 0.43 0.43 0.44 0.45 0.45 0.44 0.41
0.61 0.56 0.47 0.42 0.37 0.34 0.29 0.27 0.24 0.21 0.20 0.21 0.22 0.24 0.26 0.27 0.29 0.31 0.33 0.35 0.38 0.40 0.43 0.42 0.39 0.37 0.38 0.38 0.38 0.37 0.36 0.35 0.38 0.41 0.41 0.41 0.42 0.43 0.42 0.42 0.44 0.45 0.44
0.64 0.51 0.45 0.38 0.35 0.32 0.28 0.25 0.23 0.21 0.20 0.21 0.22 0.24 0.27 0.28 0.29 0.30 0.32 0.34 0.36 0.39 0.41 0.42 0.44 0.42 0.41 0.41 0.39 0.40 0.41 0.43 0.45 0.44 0.43 0.42 0.42 0.43 0.42 0.42 0.45 0.48 0.48
0.56 0.48 0.41 0.35 0.32 0.29 0.27 0.25 0.22 0.21 0.20 0.20 0.22 0.26 0.28 0.28 0.28 0.29 0.29 0.31 0.33 0.36 0.39 0.43 0.45 0.45 0.45 0.44 0.45 0.45 0.46 0.46 0.46 0.46 0.45 0.45 0.44 0.44 0.44 0.43 0.44 0.47 0.49
0.52 0.45 0.36 0.32 0.30 0.28 0.25 0.22 0.20 0.19 0.19 0.20 0.24 0.27 0.28 0.27 0.28 0.28 0.28 0.29 0.32 0.35 0.38 0.42 0.45 0.47 0.47 0.49 0.48 0.47 0.46 0.45 0.44 0.44 0.44 0.44 0.42 0.43 0.44 0.44 0.44 0.47 0.48
Wind_Speed
7 7 5 4 5 4 3 2 3 5 6 6 6 7 8 9 9 10 11 12 13 14 15 16 18 20 23 27 29 29 30 33 37 40 42 42 44 46 47 47 48 50 51
6 5 5 4 4 4 3 2 3 4 5 6 6 6 7 8 9 10 11 12 14 16 18 19 21 22 23 26 28 32 35 38 39 41 42 43 44 44 44 44 45 45 47
6 6 5 3 4 3 2 1 1 2 3 3 5 6 7 8 9 10 11 11 12 14 17 19 21 24 26 28 31 33 35 37 38 39 40 40 39 39 39 39 40 41 42
7 7 6 5 4 3 3 2 2 2 3 4 5 5 6 7 8 10 11 13 14 17 19 21 23 25 28 30 32 34 35 37 38 38 39 39 38 38 38 38 38 36 35
7 6 5 3 2 2 2 3 4 4 5 6 7 9 10 11 12 14 14 16 17 19 20 22 24 25 27 29 30 32 33 35 36 37 38 38 37 37 37 36 36 34 32
5 3 2 1 1 2 3 4 5 6 8 9 10 11 12 12 13 14 15 17 18 19 21 23 24 26 27 29 30 32 33 34 35 35 35 35 36 36 35 34 33 32 32
1 0 1 2 3 5 6 7 8 8 9 10 10 11 11 12 13 14 16 17 18 19 21 22 24 25 26 28 30 31 33 35 36 36 37 37 36 35 34 33 32 31 30
1 2 3 4 5 7 8 8 9 9 10 10 11 11 11 12 13 14 16 17 18 19 20 22 23 24 27 28 30 31 32 33 33 34 34 34 33 32 31 31 31 31 30
2 3 5 6 7 8 8 9 10 10 10 10 11 11 12 12 13 14 16 17 18 19 21 22 23 26 28 28 29 30 30 30 31 32 32 31 31 32 32 31 30 30 29
4 5 6 7 9 9 10 10 11 11 11 11 11 11 12 13 14 15 16 17 18 20 22 23 24 25 26 27 28 28 28 29 30 29 28 28 29 30 31 30 31 31 29
7 7 8 9 10 10 10 11 11 11 10 11 11 11 12 13 15 15 16 17 19 20 21 21 22 24 26 26 27 27 27 27 27 27 28 29 29 28 27 27 27 27 27
8 9 9 10 11 11 11 11 11 10 10 11 12 12 13 15 15 16 17 19 19 20 20 21 23 24 25 25 24 25 25 26 26 27 27 27 27 26 26 26 27 27 28
10 11 11 11 11 12 12 12 11 11 12 12 13 13 14 15 16 17 18 19 19 20 21 22 23 22 22 22 23 23 23 23 24 25 26 26 27 26 26 25 24 24 24
12 12 12 12 12 12 12 13 12 12 13 13 14 15 15 16 17 18 18 19 19 20 21 21 20 21 21 20 20 20 21 22 23 25 26 27 27 27 25 24 23 23 22
14 14 14 13 13 13 13 13 13 14 14 15 15 16 16 17 18 18 19 19 20 20 21 21 20 19 19 19 19 20 20 21 22 24 25 26 27 26 25 23 22 22 21
16 15 15 14 14 13 13 13 14 14 14 14 15 16 16 17 18 19 19 19 19 20 21 20 19 19 19 19 20 19 19 19 21 23 24 26 27 26 25 24 22 21 21
17 16 15 15 14 14 14 14 14 15 15 15 15 16 16 18 18 19 19 19 20 20 20 20 19 19 19 19 19 18 18 19 21 22 24 25 27 26 24 24 23 22 20
18 17 16 16 15 15 14 14 14 15 15 16 16 17 17 18 19 19 18 19 20 20 20 20 20 19 19 19 19 18 18 20 21 23 24 25 26 25 24 23 23 22 21
19 18 17 17 16 15 15 15 15 15 15 15 16 17 17 18 18 18 19 20 20 21 21 21 20 20 19 19 19 18 18 20 21 22 23 24 25 25 24 23 22 22 21
19 18 18 17 16 16 16 15 15 15 15 16 16 17 17 18 18 19 20 20 21 21 22 21 21 20 20 20 20 19 19 20 21 23 24 25 25 26 24 23 22 20 19
19 18 18 17 17 16 16 15 15 16 16 16 16 17 17 18 19 20 20 20 21 22 22 22 21 21 21 21 20 19 20 21 22 24 24 25 24 26 24 22 21 20 18
19 18 18 17 17 16 16 15 15 16 16 16 16 16 17 18 19 20 21 21 21 22 22 22 22 22 22 21 20 21 21 22 23 24 24 23 25 25 24 23 21 20 18
19 18 17 17 16 16 15 15 15 15 16 16 16 16 17 18 19 20 21 21 21 22 22 22 22 22 22 21 21 21 22 21 22 23 23 25 24 24 24 24 22 20 18
19 18 17 16 16 15 15 15 15 15 15 16 16 16 17 18 19 20 21 21 22 22 23 23 22 22 21 20 19 20 19 20 21 23 25 24 24 24 24 24 22 20 18
18 17 16 16 15 14 14 14 14 15 15 15 15 16 16 18 19 20 20 21 22 22 22 22 21 20 19 18 19 19 19 20 22 24 24 24 24 25 24 24 23 21 19
17 16 15 14 14 14 14 14 14 14 14 14 15 15 16 18 19 19 20 21 22 22 22 20 20 19 18 18 19 19 20 20 22 23 24 24 24 24 24 24 22 19 18
Wind_Direction
136 146 162 178 192 194 192 206 236 233 236 231 225 220 227 228 232 235 240 243 245 250 255 263 269 273 277 281 282 283 283 286 287 289 289 290 289 289 289 288 288 288 289
135 139 141 158 179 200 235 247 257 238 225 224 223 225 228 237 243 247 250 251 253 258 268 272 275 279 282 284 286 287 288 290 290 291 291 291 291 291 290 290 290 291 293
130 131 135 140 178 174 189 183 152 164 179 218 229 234 240 249 251 255 257 261 264 268 272 277 281 284 286 288 290 292 292 294 294 294 294 295 294 293 292 293 294 295 296
122 122 115 117 135 162 175 185 203 236 246 245 244 245 250 252 259 262 268 272 276 279 281 283 286 288 290 292 293 294 295 296 295 296 295 295 295 294 293 294 295 297 297
118 119 121 123 129 165 226 252 262 262 259 260 261 262 263 266 269 272 276 279 282 284 286 288 291 293 296 297 298 299 299 299 299 299 299 298 297 296 294 293 293 295 295
121 118 132 156 237 264 277 282 277 272 270 269 268 268 269 272 277 281 283 284 286 288 290 292 295 297 299 300 301 302 302 303 303 302 301 299 299 297 296 293 292 292 293
127 144 259 283 292 293 292 286 284 279 275 274 273 271 273 278 283 287 291 290 290 293 295 297 300 301 303 304 305 306 306 306 305 303 301 300 298 296 294 293 292 291 289
296 297 301 303 303 301 296 292 287 282 279 277 276 276 279 282 288 294 298 295 296 298 300 302 304 306 307 308 309 309 310 309 308 306 305 303 301 299 296 294 293 290 287
288 301 307 310 309 306 303 300 293 287 284 282 281 282 285 286 294 300 303 301 301 303 304 306 306 309 311 312 313 313 314 313 313 311 308 305 302 300 298 295 292 290 287
279 291 299 304 307 308 306 303 298 293 288 285 287 288 288 292 298 303 306 305 306 307 308 309 312 314 316 317 317 317 319 318 318 317 316 313 309 305 301 297 293 287 285
277 288 297 302 306 306 307 305 301 296 291 290 291 293 294 299 303 305 308 310 310 312 313 315 316 317 318 319 320 320 322 324 324 322 320 318 315 312 308 304 299 293 287
277 285 292 299 303 305 307 307 303 298 294 294 294 296 299 303 306 308 312 314 314 314 315 316 317 319 320 321 323 324 327 327 326 327 327 326 322 318 315 310 304 297 289
274 280 288 295 298 301 304 304 302 298 296 297 297 298 301 304 306 310 312 314 315 316 316 318 318 320 323 324 325 326 328 330 332 332 332 331 330 323 319 316 312 307 299
269 276 283 289 292 296 302 303 302 298 297 297 297 299 301 303 307 309 311 313 315 316 317 319 320 321 323 325 327 328 330 332 334 334 334 334 333 330 325 322 318 315 308
266 270 277 284 287 289 296 302 303 301 298 296 297 299 300 303 306 308 310 311 313 316 317 319 319 321 322 324 326 327 329 332 335 338 339 339 338 336 333 329 324 321 313
262 266 272 278 282 283 289 298 303 303 301 301 302 301 301 303 306 308 309 311 313 316 317 317 317 318 319 322 323 324 327 331 336 339 341 343 343 341 340 338 332 327 322
259 262 268 273 277 279 283 291 298 302 301 301 304 305 305 306 307 309 308 310 312 315 316 316 315 314 315 318 320 320 322 328 331 335 338 340 343 343 341 342 340 337 332
257 258 264 269 273 277 279 287 296 300 301 301 301 304 306 308 310 310 310 311 311 314 314 314 312 311 312 314 315 316 321 325 326 330 333 336 339 340 339 338 341 339 337
255 259 261 265 270 274 277 283 293 299 301 302 303 305 307 309 311 311 312 312 312 313 313 313 310 309 309 309 311 311 314 321 325 329 330 332 336 336 335 333 333 336 337
253 254 258 261 267 272 275 280 288 296 300 301 303 304 307 309 311 312 313 314 314 314 314 312 309 307 305 305 306 306 309 315 320 324 327 328 330 334 331 331 331 330 333
250 255 255 260 266 270 273 277 285 293 298 302 304 306 308 310 313 314 315 314 315 316 315 312 309 308 306 303 302 302 304 309 316 320 322 325 326 329 330 328 327 325 327
249 252 255 258 264 268 271 276 283 290 296 301 303 306 309 311 314 316 316 315 316 316 316 314 311 309 306 303 300 300 302 304 311 316 319 321 324 325 327 326 323 320 318
247 250 252 256 261 265 270 276 283 289 294 299 302 306 309 312 316 318 318 318 317 317 316 315 314 313 308 304 301 300 301 302 308 315 318 319 320 322 324 325 321 317 314
244 246 249 254 259 263 269 276 284 287 292 298 302 304 308 313 317 319 321 322 321 318 317 317 316 314 313 309 307 306 304 304 307 313 316 317 318 319 319 322 320 316 312
239 241 247 251 255 260 269 277 283 287 292 298 301 304 308 313 317 320 323 324 324 323 321 319 319 318 316 315 313 310 308 307 309 313 315 316 317 318 317 317 315 311 308
233 240 245 248 254 262 270 278 283 287 292 298 302 305 308 313 317 321 324 326 327 327 325 322 321 320 318 319 318 315 312 311 313 315 316 317 317 319 318 317 315 313 307